Regional Weather Roundup
Issued by NWS Kansas City/Pleasant Hill, MO

Home | Current Version | Previous Version | Graphics & Text | Print | Product List | Glossary Off
Versions: 1 2 3 4 5 6 7 8 9 10 11 12 13 14 15 16 17 18 19 20 21 22 23 24 25 26 27 28 29 30 31 32 33 34 35 36 37 38 39 40 41 42 43 44 45 46 47 48 49 50

000
ASUS43 KEAX 250511
RWREAX

WEATHER ROUNDUP FOR EASTERN KANSAS AND NORTHWEST MISSOURI
NATIONAL WEATHER SERVICE KANSAS CITY/PLEASANT HILL MO
1100 PM CST WED DEC 24 2014

KSZ040-057-103>105-MOZ028-029-037-043-250600-
...KANSAS CITY METROPOLITAN AREA...

CITY           SKY/WX    TMP DP  RH WIND       PRES   REMARKS
K.C. INTL      CLEAR     29  27  92 S9        29.80F WCI  20
K.C. DOWNTOWN  CLEAR     32  27  81 S6        29.83S WCI  26
LEES SUMMIT    CLEAR     31  27  85 S7        29.83S WCI  24
OLATHE - IXD   CLEAR     30  28  92 S10       29.82F WCI  21
OLATHE - OJC   CLEAR     30  28  92 S8        29.81F WCI  22
LAWRENCE       CLEAR     27  25  92 SE7       29.81F WCI  19

$$

MOZ001>008-011>017-020>025-030>033-038>040-044>046-053-054-250600-
...NORTHERN AND CENTRAL MISSOURI...

CITY           SKY/WX    TMP DP  RH WIND       PRES   REMARKS
ST. JOSEPH     CLEAR     30  27  88 S8        29.79F WCI  22
MOSBY            N/A     32  30  93 S3        29.83S
WARRENSBURG    CLEAR     32  30  93 S6        29.86S WCI  26
WHITEMAN AFB   PTCLDY    34  29  82 SW10      29.86R WCI  26
CLINTON        CLEAR     34  32  93 SW3       29.89R
SEDALIA        CLOUDY    36  30  79 W12G21    29.87S WCI  28
WARSAW         NOT AVBL
MARSHALL       CLOUDY    37  32  81 SW12      29.86S WCI  30
CHILLICOTHE      N/A     35  29  78 SW8       29.83S WCI  29
MOBERLY        CLOUDY    36  28  75 W10       29.83S WCI  28
KIRKSVILLE     CLOUDY    33  30  88 SW12G20   29.80R WCI  24

$$

MOZ041-047>049-056>058-063>065-088>090-097-250600-
...EASTERN AND SOUTHERN MISSOURI...

CITY           SKY/WX    TMP DP  RH WIND       PRES   REMARKS
ST. LOUIS INTL CLOUDY    38  33  82 W7        29.86R WCI  33
SPIRIT OF STL  CLOUDY    38  34  85 W7        29.86R WCI  33
COLUMBIA       CLOUDY    35  29  78 W16G23    29.86R WCI  25
JEFFERSON CITY CLOUDY    37  30  75 W10G17    29.89R WCI  30
MEXICO         CLOUDY    37  36  93 W15G22    29.84R WCI  28
HANNIBAL       CLOUDY    36  28  75 W9        29.82R WCI  29
ROLLA          CLOUDY    35  30  82 W10       29.86R WCI  27
LEBANON        CLOUDY    34  30  86 W13G18    29.90R WCI  25
OSAGE BEACH    CLOUDY    36  27  69 W12G20    29.89S WCI  27
SPRINGFIELD    CLEAR     28  25  88 S7        29.90S WCI  21
BRANSON        CLEAR     32  27  80 CALM      29.94S
NEVADA         CLEAR     30  28  93 S8        29.89F WCI  23
JOPLIN         CLEAR     31  28  89 S9        29.90F WCI  23
WEST PLAINS    CLOUDY    36  28  73 W12       29.91F WCI  28

$$

IAZ060-094-KSZ022-034>040-054-083-096-NEZ052-066-093-250600-
...KANSAS...SOUTHEAST NEBRASKA AND IOWA...

CITY           SKY/WX    TMP DP  RH WIND       PRES   REMARKS
TOPEKA         CLEAR     33  29  85 S7        29.79F WCI  27
MANHATTAN      CLEAR     30  26  85 SW8       29.75F WCI  22
EMPORIA        CLEAR     29  26  89 S14       29.79F WCI  18
CHANUTE        CLEAR     32  29  88 S10       29.86F WCI  24
WICHITA        CLEAR     30  23  75 S9        29.79F WCI  22
OMAHA          CLEAR     29  27  92 S13       29.70F WCI  19
LINCOLN        CLEAR     27  24  89 SE6       29.67F WCI  20
FALLS CITY     CLEAR     30  27  88 S9        29.74F WCI  22
LAMONI         CLOUDY    31  28  89 SW12      29.77S WCI  22
DES MOINES     CLOUDY    32  27  81 W15       29.74S WCI  22

$$




USA.gov is the U.S. government's official web portal to all federal, state and local government web resources and services.